Simultaneous Nadir Overpasses (SNOs) Predictions

Prediction of SNOs near US between AQUA and NPP Satellite Orbit:

Table of predicted SNOs near US for the next 10.0 days since TLE Epoch: 6/30/2012
Index Date (AQUA) Time (AQUA) AQUA Lat,Lon Date (NPP) Time (NPP) NPP Lat,Lon Distance(km) Time Diff (sec)
1 07/02/2012 18:17:08 49.95, -80.21 07/02/2012 18:08:49 50.59, -82.05 149.51 499
2 07/02/2012 19:56:01 50.00,-104.95 07/02/2012 19:50:02 49.61,-106.99 152.51 360
3 07/02/2012 21:31:08 36.52,-124.99 07/02/2012 21:27:37 36.06,-127.44 225.37 211
4 07/08/2012 06:32:19 40.13, -67.27 07/08/2012 06:30:29 40.46, -69.32 177.35 110
5 07/08/2012 08:08:28 49.89, -88.46 07/08/2012 08:09:08 50.34, -90.85 178.25 40
6 07/08/2012 09:47:21 49.90,-113.17 07/08/2012 09:50:35 50.52,-116.15 222.70 194
7 07/10/2012 19:06:38
